Home > Weather > Baton Rouge > Past weeks

Flag for U.S.A. Weather for the Past 2 Weeks in Baton Rouge, Louisiana, U.S.A.

Now
32 °F

Clear.


Feels Like: 29 °F
Forecast: 32 / 57 °F
Wind: 3 mph from East

Location: Baton Rouge Metropolitan - Ryan Field

Current Time: Feb 6, 2016 at 5:59:40 AM

Latest Report: Feb 6, 2016 at 4:53 AM


Visibility: 10 mi

Pressure: 30.34 "Hg

Humidity: 85%

Dew point: 28 °F

Location of Baton RougeLocation

Historic Weather in Baton Rouge — Graph

°F

Baton Rouge Temperature Yesterday

Maximum temperature yesterday: 56 °F (at 2:53 PM)
Minimum temperature yesterday: 30 °F (at 4:53 AM)
Average temperature yesterday: 42 °F

High & Low Weather Summary for the Past Weeks

 TemperatureHumidityPressure
High78 °F (Feb 1, 1:53 PM)100% (Feb 1, 3:53 AM)30.53 "Hg (Feb 1, 3:53 AM)
Low27 °F (Jan 24, 5:53 AM)21% (Feb 5, 1:53 PM)29.70 "Hg (Feb 2, 1:53 PM)
Average53 °F69%30.09 "Hg
* Reported Jan 22 4:53 AM — Feb 6 4:53 AM, Baton Rouge, Weather by CustomWeather, © 2016

Note: Actual official high and low records may vary slightly from our data, if they occured in-between our weather recording intervals... More about our weather records

Advertising

Baton Rouge Weather History for the Previous 24 Hours

 ConditionsComfort  
Time TempWeatherWind HumidityBarometerVisibility
4:53 AM
Sat, Feb 6
32 °FClear.3 mph85%30.34 "Hg10 mi
3:53 AM32 °FClear.3 mph85%30.36 "Hg10 mi
2:53 AM32 °FClear.3 mph85%30.37 "Hg10 mi
1:53 AM33 °FClear.No wind85%30.37 "Hg10 mi
12:53 AM33 °FClear.3 mph82%30.38 "Hg10 mi
11:53 PM
Fri, Feb 5
35 °FClear.No wind78%30.38 "Hg10 mi
10:53 PM37 °FClear.No wind73%30.39 "Hg8 mi
9:53 PM38 °FClear.No wind73%30.39 "Hg10 mi
8:53 PM40 °FClear.No wind63%30.39 "Hg10 mi
7:53 PM42 °FClear.No wind60%30.38 "Hg10 mi
6:53 PM45 °FClear.No wind44%30.37 "Hg10 mi
5:53 PM51 °FClear.5 mph27%30.36 "Hg10 mi
4:53 PM55 °FSunny.5 mph22%30.37 "Hg10 mi
3:53 PM56 °FSunny.3 mph21%30.38 "Hg10 mi
2:53 PM56 °FSunny.5 mph22%30.41 "Hg10 mi
1:53 PM54 °FSunny.No wind21%30.43 "Hg10 mi
12:53 PM53 °FSunny.No wind25%30.46 "Hg10 mi
11:53 AM51 °FSunny.5 mph27%30.50 "Hg10 mi
10:53 AM50 °FSunny.6 mph32%30.53 "Hg10 mi
9:53 AM47 °FSunny.5 mph39%30.53 "Hg10 mi
8:53 AM43 °FSunny.3 mph60%30.53 "Hg10 mi
7:53 AM34 °FSunny.No wind88%30.52 "Hg10 mi
6:53 AM30 °FSunny.No wind89%30.51 "Hg10 mi
5:53 AM30 °FClear.No wind85%30.50 "Hg10 mi
Weather by CustomWeather, © 2016

See weather overviewHow to use our weather pages